| time (UTC) | temp C | wind direction | speed KPH | gust KPH | rain 1hr cm | rain 24hr cm | rain mn cm | humidity % | barometer mb |
| 20260506104015 | 8 | 303 | 3.2 | 9.7 | 0.00 | 0.00 | 0.00 | 80 | 1020.1 |
| 20260506103512 | 8 | 255 | 3.2 | 9.7 | 0.00 | 0.00 | 0.00 | 79 | 1020.1 |
| 20260506103029 | 8 | 333 | 1.6 | 8.0 | 0.00 | 0.00 | 0.00 | 80 | 1020.1 |
| 20260506102511 | 8 | 44 | 3.2 | 9.7 | 0.00 | 0.00 | 0.00 | 80 | 1020.2 |
| 20260506102015 | 8 | 337 | 3.2 | 12.9 | 0.00 | 0.00 | 0.00 | 80 | 1020.2 |
| 20260506101530 | 7 | 344 | 3.2 | 12.9 | 0.00 | 0.00 | 0.00 | 80 | 1020.2 |
| 20260506101015 | 7 | 9 | 3.2 | 8.0 | 0.00 | 0.00 | 0.00 | 81 | 1020.2 |
| 20260506100514 | 7 | 154 | 3.2 | 9.7 | 0.00 | 0.00 | 0.00 | 80 | 1020.1 |
| 20260506100030 | 7 | 272 | 3.2 | 9.7 | 0.00 | 0.00 | 0.00 | 81 | 1020.1 |
| 20260506095517 | 7 | 46 | 3.2 | 9.7 | 0.00 | 0.00 | 0.00 | 81 | 1020.1 |
| 20260506095014 | 7 | 336 | 1.6 | 12.9 | 0.00 | 0.00 | 0.00 | 81 | 1020.1 |
| 20260506094530 | 7 | 322 | 6.4 | 12.9 | 0.00 | 0.00 | 0.00 | 81 | 1019.9 |
| 20260506094014 | 7 | 348 | 3.2 | 8.0 | 0.00 | 0.00 | 0.00 | 80 | 1019.9 |
| 20260506093517 | 7 | 340 | 3.2 | 12.9 | 0.00 | 0.00 | 0.00 | 81 | 1019.9 |
| 20260506093047 | 7 | 9 | 3.2 | 12.9 | 0.00 | 0.00 | 0.00 | 81 | 1019.9 |
| 20260506092515 | 7 | 49 | 4.8 | 9.7 | 0.00 | 0.00 | 0.00 | 81 | 1019.9 |
| 20260506092013 | 7 | 14 | 3.2 | 12.9 | 0.00 | 0.00 | 0.00 | 81 | 1019.8 |
| 20260506091529 | 7 | 9 | 3.2 | 14.5 | 0.00 | 0.00 | 0.00 | 80 | 1019.8 |
| 20260506091014 | 7 | 15 | 3.2 | 14.5 | 0.00 | 0.00 | 0.00 | 80 | 1019.8 |
| 20260506090513 | 7 | 308 | 4.8 | 12.9 | 0.00 | 0.00 | 0.00 | 80 | 1019.8 |
| 20260506090027 | 7 | 329 | 1.6 | 8.0 | 0.00 | 0.00 | 0.00 | 80 | 1019.9 |
| 20260506085535 | 7 | 5 | 1.6 | 8.0 | 0.00 | 0.00 | 0.00 | 80 | 1019.8 |
| 20260506085013 | 8 | 309 | 3.2 | 9.7 | 0.00 | 0.00 | 0.00 | 79 | 1019.8 |
| 20260506084527 | 8 | 13 | 3.2 | 11.3 | 0.00 | 0.00 | 0.00 | 79 | 1019.8 |
| 20260506084017 | 8 | 30 | 3.2 | 11.3 | 0.00 | 0.00 | 0.00 | 78 | 1019.8 |
| 20260506083514 | 8 | 20 | 1.6 | 11.3 | 0.00 | 0.00 | 0.00 | 78 | 1019.8 |
| 20260506083026 | 8 | 13 | 3.2 | 17.7 | 0.00 | 0.00 | 0.00 | 78 | 1019.7 |
| 20260506082518 | 8 | 352 | 3.2 | 17.7 | 0.00 | 0.00 | 0.00 | 78 | 1019.8 |
| 20260506082013 | 8 | 333 | 4.8 | 17.7 | 0.00 | 0.00 | 0.00 | 77 | 1019.7 |
| 20260506081529 | 8 | 93 | 3.2 | 12.9 | 0.00 | 0.00 | 0.00 | 77 | 1019.7 |
| 20260506081016 | 8 | 67 | 3.2 | 12.9 | 0.00 | 0.00 | 0.00 | 76 | 1019.6 |
| 20260506080511 | 8 | 86 | 4.8 | 14.5 | 0.00 | 0.00 | 0.00 | 76 | 1019.6 |
| 20260506073514 | 8 | 94 | 3.2 | 14.5 | 0.00 | 0.00 | 0.00 | 75 | 1019.6 |
| 20260506073030 | 8 | 268 | 3.2 | 16.1 | 0.00 | 0.00 | 0.00 | 75 | 1019.5 |
| 20260506072512 | 8 | 24 | 3.2 | 16.1 | 0.00 | 0.00 | 0.00 | 75 | 1019.5 |
| 20260506072015 | 8 | 360 | 3.2 | 12.9 | 0.00 | 0.00 | 0.00 | 74 | 1019.5 |
| 20260506071528 | 8 | 29 | 3.2 | 14.5 | 0.00 | 0.00 | 0.00 | 74 | 1019.4 |
| 20260506071014 | 8 | 352 | 6.4 | 17.7 | 0.00 | 0.00 | 0.00 | 74 | 1019.4 |
| 20260506070514 | 8 | 26 | 8.0 | 17.7 | 0.00 | 0.00 | 0.00 | 73 | 1019.4 |
| 20260506062513 | 8 | 317 | 6.4 | 19.3 | 0.00 | 0.00 | 0.00 | 73 | 1018.9 |
| 20260506062011 | 8 | 348 | 9.7 | 19.3 | 0.00 | 0.00 | 0.00 | 72 | 1019.1 |
| 20260506061527 | 8 | 11 | 6.4 | 19.3 | 0.00 | 0.00 | 0.00 | 72 | 1019.1 |
| 20260506061010 | 8 | 323 | 9.7 | 19.3 | 0.00 | 0.00 | 0.00 | 71 | 1019.1 |
| 20260506060513 | 8 | 26 | 9.7 | 25.7 | 0.00 | 0.00 | 0.00 | 73 | 1019.0 |
| 20260506051011 | 8 | 28 | 14.5 | 29.0 | 0.00 | 0.00 | 0.00 | 72 | 1018.7 |
| 20260506050514 | 9 | 303 | 12.9 | 24.1 | 0.00 | 0.00 | 0.00 | 70 | 1018.7 |
| 20260506045016 | 9 | 9 | 9.7 | 19.3 | 0.00 | 0.00 | 0.00 | 70 | 1018.6 |
| 20260506044531 | 9 | 20 | 8.0 | 20.9 | 0.00 | 0.00 | 0.00 | 70 | 1018.6 |
| 20260506044013 | 9 | 63 | 8.0 | 20.9 | 0.00 | 0.00 | 0.00 | 70 | 1018.5 |
| 20260506043515 | 10 | 86 | 6.4 | 17.7 | 0.00 | 0.00 | 0.00 | 69 | 1018.4 |
| 20260506043027 | 10 | 285 | 8.0 | 14.5 | 0.00 | 0.00 | 0.00 | 69 | 1018.4 |
| 20260506042510 | 10 | 86 | 4.8 | 16.1 | 0.00 | 0.00 | 0.00 | 69 | 1018.3 |
| 20260506042012 | 10 | 56 | 4.8 | 16.1 | 0.00 | 0.00 | 0.00 | 68 | 1018.2 |
| 20260506041530 | 10 | 200 | 4.8 | 19.3 | 0.00 | 0.00 | 0.00 | 70 | 1018.0 |
| 20260506041013 | 10 | 288 | 4.8 | 19.3 | 0.00 | 0.00 | 0.00 | 69 | 1017.9 |
| 20260506040512 | 10 | 302 | 4.8 | 14.5 | 0.00 | 0.00 | 0.00 | 68 | 1017.7 |
| 20260506040030 | 10 | 9 | 4.8 | 16.1 | 0.00 | 0.00 | 0.00 | 68 | 1017.6 |
| 20260506035510 | 11 | 13 | 6.4 | 16.1 | 0.00 | 0.00 | 0.00 | 65 | 1017.5 |
| 20260506035012 | 11 | 112 | 8.0 | 19.3 | 0.00 | 0.00 | 0.00 | 67 | 1017.3 |
| 20260506034530 | 11 | 232 | 8.0 | 19.3 | 0.00 | 0.00 | 0.00 | 66 | 1017.2 |
| 20260506034013 | 11 | 90 | 8.0 | 19.3 | 0.00 | 0.00 | 0.00 | 65 | 1017.1 |
| 20260506033512 | 11 | 21 | 8.0 | 24.1 | 0.00 | 0.00 | 0.00 | 64 | 1017.1 |
| 20260506033033 | 11 | 336 | 3.2 | 24.1 | 0.00 | 0.00 | 0.00 | 63 | 1017.1 |
| 20260506032514 | 12 | 331 | 11.3 | 24.1 | 0.00 | 0.00 | 0.00 | 59 | 1017.1 |
| 20260506032011 | 12 | 350 | 4.8 | 20.9 | 0.00 | 0.00 | 0.00 | 62 | 1017.0 |
| 20260506031528 | 12 | 329 | 9.7 | 22.5 | 0.00 | 0.00 | 0.00 | 60 | 1016.9 |
| 20260506031013 | 12 | 17 | 6.4 | 22.5 | 0.00 | 0.00 | 0.00 | 60 | 1016.8 |
| 20260506030512 | 12 | 340 | 11.3 | 24.1 | 0.00 | 0.00 | 0.00 | 61 | 1016.7 |
| 20260506030033 | 12 | 323 | 8.0 | 24.1 | 0.00 | 0.00 | 0.00 | 59 | 1016.7 |
| 20260506025513 | 12 | 316 | 11.3 | 20.9 | 0.00 | 0.00 | 0.00 | 58 | 1016.7 |
| 20260506025013 | 13 | 327 | 3.2 | 14.5 | 0.00 | 0.00 | 0.00 | 57 | 1016.6 |
| 20260506024529 | 13 | 298 | 4.8 | 17.7 | 0.00 | 0.00 | 0.00 | 56 | 1016.6 |
| 20260506024013 | 13 | 53 | 6.4 | 17.7 | 0.00 | 0.00 | 0.00 | 56 | 1016.4 |
| 20260506023512 | 13 | 71 | 6.4 | 19.3 | 0.00 | 0.00 | 0.00 | 54 | 1016.2 |
| 20260506023030 | 13 | 248 | 8.0 | 19.3 | 0.00 | 0.00 | 0.00 | 56 | 1016.3 |
| 20260506022512 | 13 | 267 | 11.3 | 17.7 | 0.00 | 0.00 | 0.00 | 55 | 1016.3 |
| 20260506022013 | 13 | 281 | 12.9 | 17.7 | 0.00 | 0.00 | 0.00 | 55 | 1016.3 |
| 20260506021531 | 13 | 251 | 9.7 | 16.1 | 0.00 | 0.00 | 0.00 | 53 | 1016.4 |
| 20260506021011 | 13 | 252 | 11.3 | 16.1 | 0.00 | 0.00 | 0.00 | 53 | 1016.3 |
| 20260506020512 | 13 | 293 | 9.7 | 20.9 | 0.00 | 0.00 | 0.00 | 55 | 1016.3 |
| 20260506020053 | 13 | 263 | 11.3 | 20.9 | 0.00 | 0.00 | 0.00 | 56 | 1016.3 |
| 20260506015513 | 14 | 280 | 8.0 | 16.1 | 0.00 | 0.00 | 0.00 | 57 | 1016.3 |
| 20260506015016 | 14 | 293 | 6.4 | 11.3 | 0.00 | 0.00 | 0.00 | 56 | 1016.1 |
| 20260506014527 | 15 | 302 | 4.8 | 14.5 | 0.00 | 0.00 | 0.00 | 54 | 1016.0 |
| 20260506014012 | 15 | 259 | 4.8 | 14.5 | 0.00 | 0.00 | 0.00 | 55 | 1016.0 |
| 20260506013514 | 15 | 335 | 3.2 | 14.5 | 0.00 | 0.00 | 0.00 | 52 | 1015.8 |
| 20260506013027 | 15 | 255 | 0.0 | 14.5 | 0.00 | 0.00 | 0.00 | 56 | 1015.7 |
| 20260506012511 | 15 | 297 | 8.0 | 14.5 | 0.00 | 0.00 | 0.00 | 53 | 1015.6 |
| 20260506012012 | 15 | 279 | 9.7 | 16.1 | 0.00 | 0.00 | 0.00 | 53 | 1015.6 |
| 20260506011533 | 15 | 250 | 12.9 | 16.1 | 0.00 | 0.00 | 0.00 | 52 | 1015.7 |
| 20260506011010 | 15 | 272 | 8.0 | 16.1 | 0.00 | 0.00 | 0.00 | 52 | 1015.7 |
| 20260506010511 | 15 | 293 | 9.7 | 16.1 | 0.00 | 0.00 | 0.00 | 56 | 1015.7 |
| 20260506010030 | 15 | 270 | 9.7 | 16.1 | 0.00 | 0.00 | 0.00 | 56 | 1015.7 |
| 20260506005517 | 15 | 263 | 11.3 | 17.7 | 0.00 | 0.00 | 0.00 | 56 | 1015.7 |
| 20260506005012 | 15 | 297 | 8.0 | 20.9 | 0.00 | 0.00 | 0.00 | 58 | 1015.8 |
| 20260506004539 | 15 | 273 | 12.9 | 24.1 | 0.00 | 0.00 | 0.00 | 56 | 1015.8 |
| 20260506004012 | 15 | 236 | 14.5 | 29.0 | 0.00 | 0.00 | 0.00 | 56 | 1015.8 |
| 20260506003512 | 15 | 227 | 12.9 | 29.0 | 0.00 | 0.00 | 0.00 | 57 | 1015.8 |
| 20260506003027 | 15 | 241 | 9.7 | 19.3 | 0.00 | 0.00 | 0.00 | 56 | 1015.8 |
| 20260506002512 | 15 | 235 | 14.5 | 19.3 | 0.00 | 0.00 | 0.00 | 55 | 1015.7 |
| 20260506002011 | 16 | 269 | 9.7 | 20.9 | 0.00 | 0.00 | 0.00 | 55 | 1015.8 |
| 20260506001527 | 16 | 241 | 11.3 | 20.9 | 0.00 | 0.00 | 0.00 | 55 | 1015.8 |
| 20260506001012 | 15 | 281 | 12.9 | 20.9 | 0.00 | 0.00 | 0.00 | 55 | 1015.7 |
| 20260506000511 | 16 | 267 | 8.0 | 16.1 | 0.00 | 0.00 | 0.00 | 55 | 1015.7 |
| 20260506000048 | 16 | 309 | 3.2 | 16.1 | 0.00 | 0.00 | 0.00 | 58 | 1015.6 |
| 20260505235516 | 16 | 205 | 8.0 | 16.1 | 0.00 | 0.00 | 0.00 | 54 | 1015.5 |
| 20260505235013 | 17 | 84 | 4.8 | 14.5 | 0.00 | 0.00 | 0.00 | 54 | 1015.4 |
| 20260505234528 | 17 | 291 | 4.8 | 16.1 | 0.00 | 0.00 | 0.00 | 54 | 1015.4 |
| 20260505234013 | 17 | 298 | 8.0 | 16.1 | 0.00 | 0.00 | 0.00 | 54 | 1015.4 |
| 20260505233512 | 17 | 258 | 4.8 | 16.1 | 0.00 | 0.00 | 0.00 | 55 | 1015.4 |
| 20260505233030 | 16 | 209 | 8.0 | 17.7 | 0.00 | 0.00 | 0.00 | 55 | 1015.3 |
| 20260505232512 | 16 | 227 | 8.0 | 17.7 | 0.00 | 0.00 | 0.00 | 54 | 1015.3 |
| 20260505232012 | 17 | 190 | 9.7 | 17.7 | 0.00 | 0.00 | 0.00 | 52 | 1015.3 |
| 20260505231531 | 17 | 226 | 6.4 | 16.1 | 0.00 | 0.00 | 0.00 | 52 | 1015.3 |
| 20260505231012 | 17 | 237 | 8.0 | 16.1 | 0.00 | 0.00 | 0.00 | 53 | 1015.3 |
| 20260505230512 | 16 | 211 | 6.4 | 17.7 | 0.00 | 0.00 | 0.00 | 55 | 1015.2 |
| 20260505230041 | 16 | 250 | 9.7 | 17.7 | 0.00 | 0.00 | 0.00 | 53 | 1015.1 |
| 20260505225511 | 16 | 251 | 8.0 | 20.9 | 0.00 | 0.00 | 0.00 | 54 | 1015.1 |
| 20260505225016 | 16 | 199 | 11.3 | 24.1 | 0.00 | 0.00 | 0.00 | 55 | 1015.2 |
| 20260505224537 | 16 | 250 | 12.9 | 24.1 | 0.00 | 0.00 | 0.00 | 55 | 1015.4 |
| 20260505224012 | 16 | 240 | 12.9 | 24.1 | 0.00 | 0.00 | 0.00 | 53 | 1015.4 |
| 20260505223513 | 16 | 246 | 12.9 | 24.1 | 0.00 | 0.00 | 0.00 | 55 | 1015.4 |
| 20260505223034 | 16 | 283 | 12.9 | 24.1 | 0.00 | 0.00 | 0.00 | 55 | 1015.4 |
| 20260505222515 | 16 | 214 | 16.1 | 29.0 | 0.00 | 0.00 | 0.00 | 55 | 1015.4 |
| 20260505222015 | 15 | 249 | 16.1 | 29.0 | 0.00 | 0.00 | 0.00 | 56 | 1015.4 |
| 20260505221530 | 16 | 250 | 16.1 | 29.0 | 0.00 | 0.00 | 0.00 | 55 | 1015.4 |
| 20260505221012 | 16 | 180 | 14.5 | 25.7 | 0.00 | 0.00 | 0.00 | 53 | 1015.4 |
| 20260505220512 | 16 | 213 | 14.5 | 29.0 | 0.00 | 0.00 | 0.00 | 53 | 1015.3 |
| 20260505220027 | 16 | 225 | 14.5 | 29.0 | 0.00 | 0.00 | 0.00 | 53 | 1015.2 |
| 20260505215514 | 16 | 217 | 16.1 | 25.7 | 0.00 | 0.00 | 0.00 | 52 | 1015.2 |
| 20260505215011 | 17 | 219 | 9.7 | 19.3 | 0.00 | 0.00 | 0.00 | 53 | 1015.2 |
| 20260505214530 | 17 | 196 | 9.7 | 24.1 | 0.00 | 0.00 | 0.00 | 53 | 1015.3 |
| 20260505214014 | 17 | 273 | 9.7 | 24.1 | 0.00 | 0.00 | 0.00 | 54 | 1015.2 |
| 20260505213513 | 17 | 253 | 14.5 | 24.1 | 0.00 | 0.00 | 0.00 | 53 | 1015.2 |
| 20260505213030 | 17 | 263 | 11.3 | 24.1 | 0.00 | 0.00 | 0.00 | 52 | 1015.2 |
| 20260505212514 | 17 | 239 | 11.3 | 20.9 | 0.00 | 0.00 | 0.00 | 54 | 1015.1 |
| 20260505212018 | 17 | 240 | 14.5 | 20.9 | 0.00 | 0.00 | 0.00 | 53 | 1015.2 |
| 20260505211532 | 17 | 225 | 12.9 | 20.9 | 0.00 | 0.00 | 0.00 | 55 | 1015.1 |
| 20260505211013 | 17 | 240 | 12.9 | 22.5 | 0.00 | 0.00 | 0.00 | 54 | 1015.0 |
| 20260505210513 | 17 | 227 | 14.5 | 22.5 | 0.00 | 0.00 | 0.00 | 54 | 1014.9 |
| 20260505210032 | 17 | 273 | 11.3 | 20.9 | 0.00 | 0.00 | 0.00 | 54 | 1014.9 |
| 20260505205517 | 17 | 238 | 12.9 | 20.9 | 0.00 | 0.00 | 0.00 | 52 | 1014.9 |
| 20260505205014 | 18 | 274 | 11.3 | 17.7 | 0.00 | 0.00 | 0.00 | 53 | 1014.7 |
| 20260505204530 | 18 | 201 | 8.0 | 17.7 | 0.00 | 0.00 | 0.00 | 52 | 1014.6 |
| 20260505204013 | 18 | 249 | 9.7 | 17.7 | 0.00 | 0.00 | 0.00 | 52 | 1014.6 |
| 20260505203510 | 18 | 186 | 6.4 | 17.7 | 0.00 | 0.00 | 0.00 | 52 | 1014.6 |
| 20260505203027 | 18 | 186 | 4.8 | 16.1 | 0.00 | 0.00 | 0.00 | 52 | 1014.6 |
| 20260505202512 | 18 | 294 | 6.4 | 11.3 | 0.00 | 0.00 | 0.00 | 51 | 1014.6 |
| 20260505202012 | 18 | 12 | 1.6 | 11.3 | 0.00 | 0.00 | 0.00 | 53 | 1014.5 |
| 20260505201528 | 17 | 251 | 4.8 | 9.7 | 0.00 | 0.00 | 0.00 | 53 | 1014.5 |
| 20260505201013 | 17 | 266 | 4.8 | 12.9 | 0.00 | 0.00 | 0.00 | 53 | 1014.5 |
| 20260505200511 | 17 | 270 | 4.8 | 12.9 | 0.00 | 0.00 | 0.00 | 54 | 1014.5 |
| 20260505200032 | 17 | 266 | 4.8 | 12.9 | 0.00 | 0.00 | 0.00 | 54 | 1014.5 |
| 20260505195512 | 17 | 0 | 0.0 | 11.3 | 0.00 | 0.00 | 0.00 | 54 | 1014.5 |
| 20260505195010 | 17 | 255 | 3.2 | 12.9 | 0.00 | 0.00 | 0.00 | 56 | 1014.6 |
| 20260505194528 | 17 | 239 | 6.4 | 12.9 | 0.00 | 0.00 | 0.00 | 54 | 1014.6 |
| 20260505194016 | 17 | 202 | 4.8 | 11.3 | 0.00 | 0.00 | 0.00 | 56 | 1014.5 |
| 20260505193514 | 17 | 279 | 4.8 | 11.3 | 0.00 | 0.00 | 0.00 | 56 | 1014.5 |
| 20260505193029 | 17 | 269 | 6.4 | 16.1 | 0.00 | 0.00 | 0.00 | 56 | 1014.5 |
| 20260505192511 | 17 | 324 | 4.8 | 16.1 | 0.00 | 0.00 | 0.00 | 57 | 1014.5 |
| 20260505192012 | 17 | 315 | 8.0 | 16.1 | 0.00 | 0.00 | 0.00 | 57 | 1014.5 |
| 20260505191533 | 16 | 259 | 6.4 | 12.9 | 0.00 | 0.00 | 0.00 | 58 | 1014.4 |
| 20260505191013 | 16 | 282 | 8.0 | 17.7 | 0.00 | 0.00 | 0.00 | 58 | 1014.5 |
| 20260505190511 | 16 | 282 | 8.0 | 17.7 | 0.00 | 0.00 | 0.00 | 58 | 1014.4 |
| 20260505190033 | 16 | 244 | 11.3 | 17.7 | 0.00 | 0.00 | 0.00 | 58 | 1014.4 |
| 20260505185517 | 16 | 257 | 11.3 | 19.3 | 0.00 | 0.00 | 0.00 | 58 | 1014.4 |
| 20260505185013 | 16 | 260 | 9.7 | 19.3 | 0.00 | 0.00 | 0.00 | 59 | 1014.3 |
| 20260505184538 | 16 | 263 | 9.7 | 16.1 | 0.00 | 0.00 | 0.00 | 59 | 1014.3 |
| 20260505184015 | 16 | 286 | 8.0 | 14.5 | 0.00 | 0.00 | 0.00 | 59 | 1014.2 |
| 20260505183516 | 16 | 291 | 4.8 | 12.9 | 0.00 | 0.00 | 0.00 | 62 | 1014.2 |
| 20260505183027 | 16 | 282 | 3.2 | 9.7 | 0.00 | 0.00 | 0.00 | 65 | 1014.2 |
| 20260505182515 | 15 | 0 | 1.6 | 9.7 | 0.00 | 0.00 | 0.00 | 68 | 1014.2 |
| 20260505182018 | 15 | 348 | 0.0 | 4.8 | 0.00 | 0.00 | 0.00 | 72 | 1014.2 |
| 20260505181537 | 14 | 348 | 0.0 | 4.8 | 0.00 | 0.00 | 0.00 | 74 | 1014.2 |
| 20260505181012 | 13 | 0 | 1.6 | 4.8 | 0.00 | 0.00 | 0.00 | 75 | 1014.2 |
| 20260505180512 | 13 | 106 | 1.6 | 4.8 | 0.00 | 0.00 | 0.00 | 76 | 1014.2 |
| 20260505180028 | 13 | 106 | 1.6 | 4.8 | 0.00 | 0.00 | 0.00 | 76 | 1014.1 |
| 20260505175514 | 13 | 106 | 0.0 | 4.8 | 0.00 | 0.00 | 0.00 | 76 | 1014.1 |
| 20260505175013 | 12 | 0 | 1.6 | 9.7 | 0.00 | 0.00 | 0.00 | 77 | 1014.1 |
| 20260505174537 | 12 | 106 | 3.2 | 9.7 | 0.00 | 0.00 | 0.00 | 77 | 1013.9 |
| 20260505174012 | 12 | 35 | 6.4 | 9.7 | 0.00 | 0.00 | 0.00 | 75 | 1014.0 |
| 20260505173513 | 12 | 137 | 4.8 | 9.7 | 0.00 | 0.00 | 0.00 | 75 | 1013.9 |
| 20260505173031 | 13 | 88 | 3.2 | 9.7 | 0.00 | 0.00 | 0.00 | 74 | 1013.8 |
| 20260505172515 | 13 | 140 | 4.8 | 6.4 | 0.00 | 0.00 | 0.00 | 72 | 1013.8 |
| 20260505172010 | 14 | 132 | 1.6 | 4.8 | 0.00 | 0.00 | 0.00 | 71 | 1013.8 |
| 20260505171537 | 14 | 0 | 0.0 | 6.4 | 0.00 | 0.00 | 0.00 | 71 | 1013.7 |
| 20260505171011 | 14 | 95 | 1.6 | 6.4 | 0.00 | 0.00 | 0.00 | 70 | 1013.7 |
| 20260505170515 | 14 | 0 | 1.6 | 4.8 | 0.00 | 0.00 | 0.00 | 69 | 1013.6 |
| 20260505170030 | 15 | 99 | 1.6 | 4.8 | 0.00 | 0.00 | 0.00 | 70 | 1013.7 |
| 20260505165514 | 15 | 0 | 0.0 | 8.0 | 0.00 | 0.00 | 0.00 | 70 | 1013.6 |
| 20260505165016 | 15 | 0 | 3.2 | 8.0 | 0.00 | 0.00 | 0.00 | 70 | 1013.6 |
| 20260505164527 | 15 | 280 | 4.8 | 6.4 | 0.00 | 0.00 | 0.00 | 67 | 1013.6 |
| 20260505164011 | 15 | 299 | 1.6 | 6.4 | 0.00 | 0.00 | 0.00 | 67 | 1013.6 |
| 20260505163517 | 15 | 303 | 1.6 | 4.8 | 0.00 | 0.00 | 0.00 | 69 | 1013.5 |
| 20260505163030 | 15 | 0 | 0.0 | 4.8 | 0.00 | 0.00 | 0.00 | 71 | 1013.4 |
| 20260505162511 | 14 | 0 | 0.0 | 6.4 | 0.00 | 0.00 | 0.00 | 72 | 1013.3 |
| 20260505162014 | 13 | 304 | 3.2 | 9.7 | 0.00 | 0.00 | 0.00 | 72 | 1013.4 |
| 20260505161528 | 13 | 294 | 4.8 | 9.7 | 0.00 | 0.00 | 0.00 | 73 | 1013.4 |
| 20260505161011 | 13 | 272 | 4.8 | 9.7 | 0.00 | 0.00 | 0.00 | 71 | 1013.3 |
| 20260505160518 | 14 | 292 | 3.2 | 6.4 | 0.00 | 0.00 | 0.00 | 70 | 1013.3 |
| 20260505153036 | 12 | 103 | 1.6 | 4.8 | 0.00 | 0.00 | 0.00 | 75 | 1013.0 |
| 20260505152513 | 12 | 0 | 0.0 | 4.8 | 0.00 | 0.00 | 0.00 | 76 | 1013.1 |
| 20260505152012 | 11 | 116 | 0.0 | 4.8 | 0.00 | 0.00 | 0.00 | 77 | 1013.1 |
| 20260505151532 | 11 | 108 | 1.6 | 4.8 | 0.00 | 0.00 | 0.00 | 78 | 1013.2 |
| 20260505151012 | 11 | 108 | 3.2 | 4.8 | 0.00 | 0.00 | 0.00 | 78 | 1013.1 |
| 20260505150516 | 11 | 98 | 3.2 | 4.8 | 0.00 | 0.00 | 0.00 | 78 | 1013.1 |
| 20260505140511 | 10 | 0 | 0.0 | 0.0 | 0.00 | 0.00 | 0.00 | 83 | 1012.5 |
| 20260505125011 | 10 | 0 | 0.0 | 4.8 | 0.00 | 0.00 | 0.00 | 83 | 1011.9 |
| 20260505124530 | 10 | 269 | 3.2 | 4.8 | 0.00 | 0.00 | 0.00 | 83 | 1011.8 |
| 20260505124010 | 10 | 269 | 0.0 | 4.8 | 0.00 | 0.00 | 0.00 | 83 | 1011.8 |
| 20260505123514 | 10 | 0 | 0.0 | 0.0 | 0.00 | 0.00 | 0.00 | 84 | 1011.6 |
| 20260505123044 | 10 | 0 | 0.0 | 0.0 | 0.00 | 0.00 | 0.00 | 84 | 1011.7 |
| 20260505122512 | 10 | 0 | 0.0 | 0.0 | 0.00 | 0.00 | 0.00 | 84 | 1011.7 |
| 20260505122018 | 10 | 0 | 0.0 | 0.0 | 0.00 | 0.00 | 0.00 | 85 | 1011.6 |
| 20260505121528 | 10 | 0 | 0.0 | 0.0 | 0.00 | 0.00 | 0.00 | 85 | 1011.7 |
| 20260505121013 | 9 | 0 | 0.0 | 0.0 | 0.00 | 0.00 | 0.00 | 85 | 1011.7 |
| 20260505120513 | 10 | 0 | 0.0 | 0.0 | 0.00 | 0.00 | 0.00 | 85 | 1011.6 |
| 20260505120037 | 10 | 0 | 0.0 | 0.0 | 0.00 | 0.00 | 0.00 | 84 | 1011.7 |
| 20260505115512 | 10 | 0 | 0.0 | 0.0 | 0.00 | 0.00 | 0.00 | 84 | 1011.7 |
| 20260505115012 | 10 | 0 | 0.0 | 3.2 | 0.00 | 0.00 | 0.00 | 84 | 1011.8 |
| 20260505114531 | 9 | 0 | 0.0 | 3.2 | 0.00 | 0.00 | 0.00 | 84 | 1011.8 |
| 20260505114011 | 10 | 0 | 0.0 | 3.2 | 0.00 | 0.00 | 0.00 | 82 | 1011.7 |
| 20260505113512 | 10 | 0 | 0.0 | 0.0 | 0.00 | 0.00 | 0.00 | 82 | 1011.6 |
| 20260505113029 | 10 | 0 | 0.0 | 0.0 | 0.00 | 0.00 | 0.00 | 82 | 1011.6 |
| 20260505112515 | 10 | 0 | 0.0 | 0.0 | 0.00 | 0.00 | 0.00 | 82 | 1011.6 |
| 20260505112014 | 10 | 0 | 0.0 | 0.0 | 0.00 | 0.00 | 0.00 | 82 | 1011.4 |
| 20260505111535 | 10 | 0 | 0.0 | 0.0 | 0.00 | 0.00 | 0.00 | 82 | 1011.4 |
| 20260505111013 | 10 | 0 | 0.0 | 0.0 | 0.00 | 0.00 | 0.00 | 82 | 1011.4 |
| 20260505110510 | 10 | 0 | 0.0 | 0.0 | 0.00 | 0.00 | 0.00 | 82 | 1011.5 |